Content
SEND FEEDBACK

Daily
Averages
Monthly
Summary
United States of America

WILMINGTON, NORTH CAROLINA


Home > North America > United States > North Carolina
Elevation: 72 feet     Latitude: 34 16N     Longitude: 077 54W

WEATHER
 
SELECT A DAY
Number of Records: 211,687;   Date Range: 1/1/95 - 9/30/14
 
SHARE

PRINT THIS DATA

[ ← Previous Day ]
WEATHER ALMANAC - APRIL 1, 2013
[ Next Day → ]
[ °C ]   °F
Weather ElementAverageHighLow
Temperature64.3 °F73 °F (5:53 pm)55.9 °F (11:53 pm)
Dewpoint55.9 °F60.1 °F (10:53 am)48.9 °F (7:53 pm)
Humidity75.7 %93 % (7:53 am)47 % (6:53 pm)
Barometer29.87 in29.92 in (11:53 pm)29.83 in (3:53 pm)
Wind Speed8.9 mph17.3 mph (4:53 am)
Wind Gust25.3 mph (4:53 am)
Weather ElementAverage
Visibility9.9 mi
Wind DirectionSSW (214.6 °)

Weather ElementTotal
Precipitation0.08 in
Heating Degree Days0.5 (Base 65)
Growing Degree Days14.5 (Base 50)
Averaged from 28 records on April 1, 2013
WEATHER CONDITIONS BREAKOUT
WIND DIRECTION BREAKOUT
WEATHER BY HOUR - APRIL 1, 2013
[ °C ]   °F
Local TimeTemperatureDewpointHumidityBarometerVisibilityWind DirectionWind SpeedGust SpeedPrecipitationEventsConditions
1:53 AM61.0 °F55.9 °F83 %29.89 in10.0 miSW (220°)8.1 mphOvercast
2:53 AM61.0 °F55.9 °F83 %29.88 in10.0 miSW (230°)10.4 mphThunderstormOvercast
3:12 AM60.8 °F55.4 °F82 %29.87 in10.0 miSW (220°)9.2 mphMostly Cloudy
3:53 AM61.0 °F55.9 °F83 %29.87 in10.0 miSW (230°)10.4 mph0.00 inRainLight Rain
4:53 AM61.0 °F57.0 °F87 %29.86 in10.0 miSW (230°)17.3 mph25.3 mph0.01 inRainLight Rain
5:53 AM60.1 °F57.0 °F90 %29.84 in10.0 miWSW (240°)10.4 mph0.02 inPartly Cloudy
6:53 AM60.1 °F57.0 °F90 %29.87 in10.0 miWSW (250°)6.9 mphMostly Cloudy
7:53 AM59.0 °F57.0 °F93 %29.88 in10.0 miSW (220°)3.5 mphScattered Clouds
8:53 AM61.0 °F57.9 °F90 %29.91 in10.0 miWSW (250°)6.9 mphOvercast
9:53 AM61.0 °F59.0 °F93 %29.88 in7.0 miCalm0.02 inRainLight Rain
10:53 AM63.0 °F60.1 °F90 %29.90 in10.0 miSW (230°)9.2 mph0.03 inRainLight Rain
11:48 AM64.4 °F59.0 °F83 %29.90 in10.0 miWSW (240°)11.5 mph0.00 inRainLight Rain
11:53 AM64.9 °F59.0 °F81 %29.90 in10.0 miWSW (240°)12.7 mph0.00 inOvercast
12:53 PM66.9 °F57.9 °F73 %29.88 in10.0 miSW (230°)13.8 mphOvercast
1:33 PM69.8 °F57.2 °F64 %29.86 in10.0 miWSW (250°)12.7 mphMostly Cloudy
1:53 PM70.0 °F57.9 °F65 %29.86 in10.0 miWest (260°)15.0 mphOvercast
2:02 PM68.0 °F57.2 °F68 %29.86 in10.0 miWest (280°)16.1 mphOvercast
2:13 PM68.0 °F57.2 °F68 %29.85 in10.0 miWNW (300°)12.7 mphMostly Cloudy
2:53 PM71.1 °F57.9 °F63 %29.84 in10.0 miWNW (300°)9.2 mphScattered Clouds
3:53 PM70.0 °F55.9 °F61 %29.83 in10.0 miWest (280°)11.5 mphMostly Cloudy
4:53 PM72.0 °F55.0 °F55 %29.83 in10.0 miWest (280°)12.7 mphPartly Cloudy
5:53 PM73.0 °F52.0 °F48 %29.83 in10.0 miWNW (300°)11.5 mphScattered Clouds
6:53 PM71.1 °F50.0 °F47 %29.84 in10.0 miWest (280°)10.4 mphClear
7:53 PM66.0 °F48.9 °F54 %29.86 in10.0 miWest (260°)3.5 mphClear
8:53 PM62.1 °F50.0 °F65 %29.87 in10.0 miSouth (190°)3.5 mphClear
9:53 PM60.1 °F53.1 °F78 %29.89 in10.0 miCalmClear
10:53 PM57.9 °F55.0 °F90 %29.91 in10.0 miCalmClear
11:53 PM55.9 °F54.0 °F93 %29.92 in10.0 miCalmClear
Hourly data recorded from KILM, located miles away from Wilmington, North Carolina







STORIES FROM OUR PARTNERS